TimeCDT,TemperatureF,Dew PointF,Humidity,Sea Level PressureIn,VisibilityMPH,Wind Direction,Wind SpeedMPH,Gust SpeedMPH,PrecipitationIn,Events,Conditions,WindDirDegrees,DateUTC
12:54 AM,50.0,36.0,59,30.03,10.0,SSE,6.9,-,N/A,,Clear,150,2012-03-14 05:54:00
1:54 AM,48.9,37.0,64,30.02,10.0,South,5.8,-,N/A,,Clear,170,2012-03-14 06:54:00
2:54 AM,48.9,39.9,71,30.01,10.0,South,8.1,-,N/A,,Clear,170,2012-03-14 07:54:00
3:54 AM,50.0,42.1,74,30.00,10.0,South,8.1,-,N/A,,Clear,170,2012-03-14 08:54:00
4:54 AM,50.0,44.1,80,29.99,10.0,South,9.2,-,N/A,,Clear,170,2012-03-14 09:54:00
5:54 AM,51.1,45.0,80,30.00,10.0,South,10.4,-,N/A,,Clear,180,2012-03-14 10:54:00
6:54 AM,48.9,46.0,90,30.00,10.0,South,8.1,-,N/A,,Partly Cloudy,170,2012-03-14 11:54:00
7:54 AM,53.1,48.9,86,30.00,10.0,South,10.4,-,N/A,,Scattered Clouds,180,2012-03-14 12:54:00
8:54 AM,59.0,52.0,78,30.01,10.0,South,10.4,-,N/A,,Scattered Clouds,190,2012-03-14 13:54:00
9:54 AM,63.0,54.0,72,30.00,10.0,SSW,15.0,-,N/A,,Mostly Cloudy,200,2012-03-14 14:54:00
10:54 AM,69.1,55.9,63,29.99,10.0,SSW,13.8,21.9,N/A,,Scattered Clouds,200,2012-03-14 15:54:00
11:54 AM,72.0,57.9,61,29.96,10.0,SSW,15.0,-,N/A,,Scattered Clouds,210,2012-03-14 16:54:00
12:54 PM,75.0,60.1,60,29.95,10.0,SW,16.1,21.9,N/A,,Scattered Clouds,220,2012-03-14 17:54:00
1:54 PM,75.9,59.0,56,29.94,10.0,SSW,16.1,24.2,N/A,,Scattered Clouds,210,2012-03-14 18:54:00
2:54 PM,78.1,57.9,50,29.91,10.0,SSW,20.7,27.6,N/A,,Scattered Clouds,210,2012-03-14 19:54:00
3:54 PM,77.0,57.9,52,29.89,10.0,SSW,17.3,26.5,N/A,,Scattered Clouds,200,2012-03-14 20:54:00
4:54 PM,77.0,57.0,50,29.88,10.0,SSW,17.3,25.3,N/A,,Mostly Cloudy,200,2012-03-14 21:54:00
5:54 PM,77.0,57.0,50,29.88,10.0,SSW,13.8,-,N/A,,Mostly Cloudy,210,2012-03-14 22:54:00
6:54 PM,73.0,59.0,61,29.90,10.0,SW,11.5,-,N/A,,Mostly Cloudy,220,2012-03-14 23:54:00
7:54 PM,71.1,59.0,66,29.93,10.0,SW,4.6,-,N/A,,Mostly Cloudy,230,2012-03-15 00:54:00
8:54 PM,68.0,59.0,73,29.94,10.0,Calm,Calm,-,N/A,,Mostly Cloudy,0,2012-03-15 01:54:00
9:54 PM,64.0,57.9,80,29.95,10.0,SE,5.8,-,N/A,,Scattered Clouds,140,2012-03-15 02:54:00
10:54 PM,64.9,57.9,78,29.94,10.0,South,3.5,-,N/A,,Scattered Clouds,170,2012-03-15 03:54:00
11:54 PM,61.0,55.9,83,29.93,10.0,South,5.8,-,N/A,,Scattered Clouds,170,2012-03-15 04:54:00